• Processing (Info)

  • MPEC 2017-Y131: 2017 YV5

    The following Minor Planet Electronic Circular may be linked-to from your own Web pages, but must not otherwise be redistributed electronically.

    A form allowing access to any MPEC is at the bottom of this page.


    Read MPEC 2017-Y130 Read MPEC 2017-Y132


    M.P.E.C. 2017-Y131                               Issued 2017 Dec. 28, 22:38 UT
    
         The Minor Planet Electronic Circulars contain information on unusual
             minor planets and routine data on comets.  They are published
        on behalf of Division F of the International Astronomical Union by the
              Minor Planet Center, Smithsonian Astrophysical Observatory,
                              Cambridge, MA 02138, U.S.A.
    
                 Prepared using the Tamkin Foundation Computer Network
    
                                  MPC@CFA.HARVARD.EDU
                URL https://www.minorplanetcenter.net/    ISSN 1523-6714
    
                                       2017 YV5
    
    Observations:
         K17Y05V* C2017 12 24.51319 09 01 04.459-20 32 07.95         21.3 wUEY131F51
         K17Y05V  C2017 12 24.52484 09 01 02.323-20 31 35.00         21.5 wUEY131F51
         K17Y05V  C2017 12 24.53648 09 01 00.202-20 31 01.93         21.9 wUEY131F51
         K17Y05V |C2017 12 25.24084 08 59 04.88 -19 56 57.7          21.7 VuEY131807
         K17Y05V |C2017 12 25.24470 08 59 04.15 -19 56 47.1          21.4 VuEY131807
         K17Y05V |C2017 12 25.24873 08 59 03.47 -19 56 35.6          21.4 VuEY131807
         K17Y05V  C2017 12 25.40231 08 58 37.52 -19 49 58.4          21.6 RoEY131926
         K17Y05V  C2017 12 25.40778 08 58 36.54 -19 49 42.6          21.4 RoEY131926
         K17Y05V  C2017 12 25.41323 08 58 35.56 -19 49 27.2          21.1 RoEY131926
         K17Y05V  C2017 12 25.48293 08 58 25.050-19 46 01.18         21.8 wUEY131F51
         K17Y05V  C2017 12 25.49461 08 58 22.938-19 45 28.31         21.5 wUEY131F51
         K17Y05V  C2017 12 25.50626 08 58 20.822-19 44 55.02         21.7 wUEY131F51
         K17Y05V  C2017 12 25.51794 08 58 18.706-19 44 21.90         21.5 wUEY131F51
         K17Y05V _C2017 12 25.60157308 58 03.468-19 40 21.98         21.2 GUEY131568
         K17Y05V _C2017 12 25.60251708 58 03.301-19 40 19.31         21.1 GUEY131568
         K17Y05V _C2017 12 25.60345808 58 03.129-19 40 16.52         21.1 GUEY131568
         K17Y05V  C2017 12 26.37900 08 55 57.66 -19 03 22.4          22.1 RoEY131926
         K17Y05V  C2017 12 26.38383 08 55 56.85 -19 03 08.2                UEY131I52
         K17Y05V  C2017 12 26.38560 08 55 56.50 -19 03 03.2          21.2 RoEY131926
         K17Y05V  C2017 12 26.39046 08 55 55.56 -19 02 49.9                UEY131I52
         K17Y05V  C2017 12 26.39222 08 55 55.30 -19 02 44.3          21.1 RoEY131926
         K17Y05V  C2017 12 26.39379 08 55 54.96 -19 02 40.4          21.9 GUEY131I52
         K17Y05V KC2017 12 28.38819 08 50 31.09 -17 27 00.3          21.6 RoEY131291
         K17Y05V KC2017 12 28.39214 08 50 30.39 -17 26 48.8          21.4 RoEY131291
         K17Y05V KC2017 12 28.39610 08 50 29.68 -17 26 37.4          21.8 RoEY131291
    
    Observer details:
    291 LPL/Spacewatch II.  Observer J. V. Scotti.  1.8-m f/2.7 reflector + CCD.
    568 Mauna Kea.  Observers R. J. Wainscoat, R. Weryk, L. Wells.  Measurers
        M. Micheli, R. Weryk.  3.6-m Canada-France-Hawaii Telescope + CCD.
    807 Cerro Tololo.  Observers T. Linder, R. Holmes.  0.61-m f/6.5 astrograph
        + CCD.
    926 Tenagra II Observatory.  Observers M. Schwartz, P. R. Holvorcem.  Measurer
        M. Schwartz.  0.81-m f/7 Ritchey-Chretien + CCD.
    F51 Pan-STARRS 1, Haleakala.  Observers J. Bulger, T. Lowe, A. Schultz,
        M. Willman.  Measurers K. Chambers, S. Chastel, L. Denneau, H. Flewelling,
        M. Huber, E. Lilly, E. Magnier, R. Wainscoat, C. Waters, R. Weryk.  1.8-m
        Ritchey-Chretien + CCD.
    I52 Steward Observatory, Mt. Lemmon Station.  Observer R. A. Kowalski.
        Measurers E. J. Christensen, D. C. Fuls, A. R. Gibbs, A. D. Grauer,
        J. A. Johnson, R. A. Kowalski, S. M. Larson, G. J. Leonard, R. G. Matheny,
        R. L. Seaman, F. C. Shelly.  1.0-m reflector + CCD.
    
    Orbital elements:
    2017 YV5                                                 Earth MOID = 0.0445 AU
    Epoch 2017 Sept. 4.0 TT = JDT 2458000.5                 MPC
    M 331.76160              (2000.0)            P               Q
    n   0.59115822     Peri.  221.73392     +0.93086160     -0.36264510
    a   1.4060483      Node   159.39892     +0.35970920     +0.88820824
    e   0.3933878      Incl.    7.27487     +0.06407788     +0.28208981
    P   1.67           H   22.8           G   0.15           U   6
    Residuals in seconds of arc
    171224 F51  0.0   0.0     171225 F51  0.0   0.1+    171226 926  0.3+  0.0
    171224 F51  0.1-  0.0     171225 F51  0.0   0.1-    171226 I52  0.6-  0.1-
    171224 F51  0.0   0.0     171225 F51  0.1-  0.2+    171226 926  0.1+  0.0
    171225 807  0.1+  0.1+    171225 F51  0.0   0.1+    171226 I52  0.7-  0.1-
    171225 807  0.4-  0.2-    171225 568  0.0   0.1-    171228 291  0.1+  0.1-
    171225 807  0.2+  0.1-    171225 568  0.0   0.2-    171228 291  0.0   0.0
    171225 926  0.1+  0.3-    171225 568  0.0   0.1-    171228 291  0.1-  0.0
    171225 926  0.2+  0.1-    171226 926  0.1-  0.4-
    171225 926  0.3+  0.2-    171226 I52  0.9+  0.5+
    
    Ephemeris:
    2017 YV5                 a,e,i = 1.41, 0.39, 7                   q = 0.8529
    Date    TT    R. A. (2000) Decl.     Delta      r     Elong.  Phase     V
    2017 11 28    10 30 06.5 -41 23 58   0.1671  0.9525    73.4    96.9    22.3
    ...
    2017 12 13    09 33 59.2 -29 26 59   0.1878  1.0324    99.5    70.1    21.7
    ...
    2017 12 21    09 10 50.1 -23 17 06   0.2003  1.0794   113.5    56.7    21.5
    ...
    2017 12 27    08 54 15.9 -18 33 10   0.2114  1.1158   124.1    46.9    21.4
    2017 12 28    08 51 33.6 -17 45 11   0.2135  1.1219   125.9    45.3    21.4
    2017 12 29    08 48 52.4 -16 57 04   0.2157  1.1281   127.6    43.7    21.4
    ...
    2018 01 04    08 33 14.8 -12 07 04   0.2308  1.1651   138.0    34.4    21.4
    ...
    2018 01 12    08 14 15.1 -05 48 17   0.2577  1.2148   150.7    23.4    21.4
    ...
    2018 01 27    07 48 04.0 +04 24 26   0.3350  1.3068   161.5    13.8    21.8
    
    A. U. Tomatic                (C) Copyright 2017 MPC           M.P.E.C. 2017-Y131
    

    Read MPEC 2017-Y130 Read MPEC 2017-Y132


    MPEC number:

    Enter an MPEC number in one of the following forms:

    • 1997-B01 (the full form)
    • J97B01 (the packed version of the full form)
    • B01 (the abbreviated form)